DW9923 Weather Reports


Display with metric or nautical units.
time (UTC)temp
F
wind
direction
speed
MPH
gust
MPH
rain 1hr
in
rain 24hr
in
rain mn
in
humidity
%
barometer
mb
20260902212529 90 164 0.0 3.0 0.00 0.00 0.00 35
20260902212021 89 164 0.0 3.0 0.00 0.00 0.00 35
20260902211514 90 128 0.0 3.0 0.00 0.00 0.00 35
20260902210342 89 146 0.0 0.0 0.00 0.00 0.00 34
20260902205836 89 122 0.0 3.0 0.00 0.00 0.00 34
20260902205320 89 132 0.0 3.0 0.00 0.00 0.00 33
20260902204822 89 312 0.0 5.0 0.00 0.00 0.00 32
20260902204320 89 319 0.0 5.0 0.00 0.00 0.00 32
20260902203801 89 87 0.0 5.0 0.00 0.00 0.00 33
20260902202625 89 126 0.0 4.0 0.00 0.00 0.00 32
20260902202118 89 127 0.0 4.0 0.00 0.00 0.00 32
20260902201611 89 67 0.0 4.0 0.00 0.00 0.00 31
20260902201117 89 98 0.0 4.0 0.00 0.00 0.00 31
20260902200616 88 72 0.0 4.0 0.00 0.00 0.00 32
20260902200059 88 92 0.0 4.0 0.00 0.00 0.00 33
20260902195544 88 115 0.0 2.0 0.00 0.00 0.00 34
20260902195030 87 113 0.0 3.0 0.00 0.00 0.00 34
20260902194523 87 90 0.0 3.0 0.00 0.00 0.00 35
20260902193356 86 5 0.0 5.0 0.00 0.00 0.00 38
20260902192856 85 323 1.0 5.0 0.00 0.00 0.00 40
20260902192401 85 306 1.0 5.0 0.00 0.00 0.00 41
20260902191858 85 300 0.0 3.0 0.00 0.00 0.00 43
20260902191356 85 161 1.0 5.0 0.00 0.00 0.00 44
20260902190851 85 51 1.0 5.0 0.00 0.00 0.00 44
20260902190354 85 300 1.0 5.0 0.00 0.00 0.00 44
20260902185844 85 300 1.0 5.0 0.00 0.00 0.00 44
20260902185336 84 299 2.0 7.0 0.00 0.00 0.00 44
20260902184201 84 301 2.0 7.0 0.00 0.00 0.00 44
20260902183650 84 302 2.0 7.0 0.00 0.00 0.00 43
20260902183137 84 302 1.0 5.0 0.00 0.00 0.00 43
20260902182631 84 309 1.0 5.0 0.00 0.00 0.00 43
20260902182119 84 309 1.0 5.0 0.00 0.00 0.00 43
20260902180954 83 309 0.0 5.0 0.00 0.00 0.00 44
20260902180455 82 309 1.0 5.0 0.00 0.00 0.00 46
20260902175952 82 309 1.0 5.0 0.00 0.00 0.00 44
20260902173610 80 263 0.0 3.0 0.00 0.00 0.00 44
20260902172453 78 279 0.0 1.0 0.00 0.00 0.00 46
20260902172218 78 279 0.0 2.0 0.00 0.00 0.00 46
20260902171715 77 180 0.0 1.0 0.00 0.00 0.00 49
20260902171204 76 157 0.0 0.0 0.00 0.00 0.00 49
20260902170649 75 157 0.0 0.0 0.00 0.00 0.00 51
20260902170139 74 157 0.0 0.0 0.00 0.00 0.00 52
20260902165019 72 227 0.0 1.0 0.00 0.00 0.00 56
20260902164512 70 228 0.0 0.0 0.00 0.00 0.00 58
20260902164016 69 229 0.0 0.0 0.00 0.00 0.00 58
20260902162900 66 234 0.0 0.0 0.00 0.00 0.00 61
20260902162350 64 234 0.0 0.0 0.00 0.00 0.00 65
20260902161832 63 234 0.0 0.0 0.00 0.00 0.00 73
20260902161319 61 234 0.0 0.0 0.00 0.00 0.00 76
20260902160814 59 234 0.0 0.0 0.00 0.00 0.00 83
20260902160254 58 234 0.0 0.0 0.00 0.00 0.00 90
20260902155748 56 234 0.0 0.0 0.00 0.00 0.00 93
20260902155235 55 234 0.0 0.0 0.00 0.00 0.00 93
20260902154738 54 234 0.0 0.0 0.00 0.00 0.00 93
20260902154247 53 234 0.0 0.0 0.00 0.00 0.00 92
20260902153748 53 234 0.0 0.0 0.00 0.00 0.00 92
20260902153243 52 234 0.0 0.0 0.00 0.00 0.00 92
20260902152730 51 296 0.0 0.0 0.00 0.00 0.00 92
20260902152219 51 296 0.0 0.0 0.00 0.00 0.00 92
20260902151053 50 296 0.0 0.0 0.00 0.00 0.00 91
20260902145922 49 296 0.0 0.0 0.00 0.00 0.00 90
20260902145424 49 296 0.0 0.0 0.00 0.00 0.00 90
20260902144909 49 296 0.0 0.0 0.00 0.00 0.00 90
20260902144407 49 296 0.0 0.0 0.00 0.00 0.00 89
20260902143856 48 296 0.0 0.0 0.00 0.00 0.00 89
20260902143345 48 296 0.0 0.0 0.00 0.00 0.00 89
20260902142826 48 296 0.0 0.0 0.00 0.00 0.00 88
20260902141714 48 296 0.0 0.0 0.00 0.00 0.00 88
20260902141217 48 296 0.0 0.0 0.00 0.00 0.00 88
20260902140722 48 296 0.0 0.0 0.00 0.00 0.00 88
20260902140213 48 296 0.0 0.0 0.00 0.00 0.00 88
20260902135029 49 296 0.0 0.0 0.00 0.00 0.00 87
20260902134527 49 296 0.0 0.0 0.00 0.00 0.00 87
20260902134019 49 296 0.0 0.0 0.00 0.00 0.00 87
20260902133516 49 296 0.0 0.0 0.00 0.00 0.00 87
20260902133015 49 296 0.0 0.0 0.00 0.00 0.00 87
20260902131237 50 296 0.0 0.0 0.00 0.00 0.00 87
20260902130728 50 296 0.0 0.0 0.00 0.00 0.00 87
20260902130212 50 296 0.0 0.0 0.00 0.00 0.00 87
20260902125713 50 296 0.0 0.0 0.00 0.00 0.00 87
20260902125209 50 296 0.0 0.0 0.00 0.00 0.00 87
20260902124711 50 296 0.0 0.0 0.00 0.00 0.00 87
20260902124152 50 296 0.0 0.0 0.00 0.00 0.00 87
20260902123646 50 296 0.0 0.0 0.00 0.00 0.00 87
20260902123139 51 296 0.0 0.0 0.00 0.00 0.00 87
20260902122627 51 296 0.0 0.0 0.00 0.00 0.00 87
20260902120828 51 296 0.0 0.0 0.00 0.00 0.00 88
20260902120309 51 296 0.0 0.0 0.00 0.00 0.00 88
20260902115800 51 296 0.0 0.0 0.00 0.00 0.00 88
20260902115249 51 296 0.0 0.0 0.00 0.00 0.00 87
20260902114748 51 296 0.0 1.0 0.00 0.00 0.00 87
20260902114246 51 296 0.0 0.0 0.00 0.00 0.00 86
20260902113727 51 296 0.0 0.0 0.00 0.00 0.00 86
20260902113213 51 296 0.0 0.0 0.00 0.00 0.00 86
20260902112704 52 296 0.0 0.0 0.00 0.00 0.00 86
20260902112206 52 296 0.0 0.0 0.00 0.00 0.00 86
20260902111707 52 296 0.0 0.0 0.00 0.00 0.00 86
20260902110545 52 296 0.0 0.0 0.00 0.00 0.00 85
20260902110049 52 296 0.0 0.0 0.00 0.00 0.00 85
20260902105541 52 296 0.0 0.0 0.00 0.00 0.00 85
20260902105037 52 296 0.0 0.0 0.00 0.00 0.00 84
20260902104543 52 296 0.0 0.0 0.00 0.00 0.00 84
20260902104048 53 296 0.0 0.0 0.00 0.00 0.00 85
20260902102939 53 296 0.0 0.0 0.00 0.00 0.00 85
20260902102425 53 296 0.0 0.0 0.00 0.00 0.00 85
20260902101928 53 296 0.0 0.0 0.00 0.00 0.00 85
20260902101411 53 296 0.0 0.0 0.00 0.00 0.00 85
20260902100859 53 296 0.0 0.0 0.00 0.00 0.00 85
20260902100406 54 296 0.0 0.0 0.00 0.00 0.00 85
20260902095909 54 296 0.0 0.0 0.00 0.00 0.00 85
20260902095414 54 296 0.0 0.0 0.00 0.00 0.00 85
20260902094857 54 296 0.0 0.0 0.00 0.00 0.00 85
20260902094347 54 296 0.0 0.0 0.00 0.00 0.00 85
20260902093855 54 296 0.0 0.0 0.00 0.00 0.00 84
20260902093343 54 296 0.0 0.0 0.00 0.00 0.00 84
20260902092844 54 296 0.0 0.0 0.00 0.00 0.00 84
20260902092329 54 296 0.0 0.0 0.00 0.00 0.00 84
20260902091148 55 296 0.0 0.0 0.00 0.00 0.00 84
20260902085511 55 296 0.0 0.0 0.00 0.00 0.00 83
20260902085010 55 296 0.0 0.0 0.00 0.00 0.00 83
20260902083829 55 296 0.0 0.0 0.00 0.00 0.00 83
20260902083309 55 296 0.0 0.0 0.00 0.00 0.00 83
20260902081540 56 296 0.0 0.0 0.00 0.00 0.00 81
20260902081039 56 296 0.0 0.0 0.00 0.00 0.00 81
20260902080547 56 296 0.0 0.0 0.00 0.00 0.00 81
20260902080045 56 296 0.0 0.0 0.00 0.00 0.00 81
20260902075547 57 296 0.0 0.0 0.00 0.00 0.00 81
20260902075028 57 296 0.0 0.0 0.00 0.00 0.00 81
20260902074534 57 296 0.0 0.0 0.00 0.00 0.00 81
20260902074035 57 296 0.0 0.0 0.00 0.00 0.00 81
20260902073531 57 296 0.0 0.0 0.00 0.00 0.00 81
20260902072359 57 296 0.0 0.0 0.00 0.00 0.00 81
20260902071216 58 296 0.0 0.0 0.00 0.00 0.00 81
20260902070715 58 296 0.0 0.0 0.00 0.00 0.00 81
20260902070208 58 296 0.0 0.0 0.00 0.00 0.00 81
20260902065650 58 296 0.0 0.0 0.00 0.00 0.00 81
20260902063856 58 296 0.0 0.0 0.00 0.00 0.00 79
20260902063347 59 296 0.0 0.0 0.00 0.00 0.00 78
20260902062218 59 296 0.0 0.0 0.00 0.00 0.00 78
20260902061705 59 296 0.0 0.0 0.00 0.00 0.00 77
20260902061153 60 296 0.0 0.0 0.00 0.00 0.00 77
20260902060659 60 296 0.0 0.0 0.00 0.00 0.00 77
20260902055531 60 296 0.0 0.0 0.00 0.00 0.00 77
20260902055031 60 296 0.0 0.0 0.00 0.00 0.00 76
20260902054514 61 296 0.0 0.0 0.00 0.00 0.00 76
20260902054007 61 296 0.0 0.0 0.00 0.00 0.00 76
20260902053504 61 296 0.0 1.0 0.00 0.00 0.00 75
20260902053005 61 296 0.0 0.0 0.00 0.00 0.00 75
20260902051836 62 296 0.0 0.0 0.00 0.00 0.00 75
20260902051319 62 296 0.0 0.0 0.00 0.00 0.00 74
20260902050816 62 296 0.0 0.0 0.00 0.00 0.00 73
20260902050258 63 296 0.0 0.0 0.00 0.00 0.00 73
20260902045803 63 296 0.0 0.0 0.00 0.00 0.00 73
20260902045251 63 296 0.0 0.0 0.00 0.00 0.00 73
20260902044800 64 296 0.0 0.0 0.00 0.00 0.00 72
20260902044244 64 296 0.0 0.0 0.00 0.00 0.00 72
20260902043735 64 296 0.0 0.0 0.00 0.00 0.00 72
20260902043237 65 296 0.0 0.0 0.00 0.00 0.00 72
20260902042741 65 296 0.0 0.0 0.00 0.00 0.00 72
20260902042235 65 296 0.0 0.0 0.00 0.00 0.00 71
20260902035825 67 296 0.0 0.0 0.00 0.00 0.00 70
20260902035315 67 296 0.0 0.0 0.00 0.00 0.00 70
20260902034807 67 296 0.0 0.0 0.00 0.00 0.00 70
20260902034248 68 296 0.0 0.0 0.00 0.00 0.00 70
20260902033751 68 296 0.0 0.0 0.00 0.00 0.00 69
20260902033232 68 296 0.0 0.0 0.00 0.00 0.00 68
20260902032735 68 296 0.0 0.0 0.00 0.00 0.00 68
20260902032230 68 296 0.0 0.0 0.00 0.00 0.00 68
20260902031735 69 296 0.0 0.0 0.00 0.00 0.00 67
20260902031229 69 296 0.0 0.0 0.00 0.00 0.00 67
20260902030732 69 296 0.0 2.0 0.00 0.00 0.00 66
20260902030236 70 296 0.0 0.0 0.00 0.00 0.00 66
20260902025734 70 296 0.0 3.0 0.00 0.00 0.00 65
20260902025237 70 296 0.0 3.0 0.00 0.00 0.00 64
20260902024719 71 296 0.0 3.0 0.00 0.00 0.00 63
20260902024202 71 296 0.0 3.0 0.00 0.00 0.00 61
20260902023657 72 296 0.0 3.0 0.00 0.00 0.00 60
20260902023139 72 296 0.0 3.0 0.00 0.00 0.00 60
20260902022625 73 296 0.0 2.0 0.00 0.00 0.00 59
20260902022115 73 296 0.0 3.0 0.00 0.00 0.00 58
20260902021559 74 296 0.0 3.0 0.00 0.00 0.00 58
20260902021044 74 296 1.0 4.0 0.00 0.00 0.00 58
20260902020552 75 296 1.0 4.0 0.00 0.00 0.00 59
20260902020050 75 296 1.0 4.0 0.00 0.00 0.00 58
20260902015537 76 296 1.0 4.0 0.00 0.00 0.00 57
20260902015044 76 296 1.0 3.0 0.00 0.00 0.00 56
20260902014538 77 296 1.0 4.0 0.00 0.00 0.00 55
20260902014019 78 296 1.0 4.0 0.00 0.00 0.00 53
20260902013513 78 296 2.0 4.0 0.00 0.00 0.00 52
20260902013012 79 296 2.0 4.0 0.00 0.00 0.00 51
20260902012502 80 296 1.0 5.0 0.00 0.00 0.00 49
20260902011946 80 296 1.0 5.0 0.00 0.00 0.00 45
20260902011437 81 296 1.0 5.0 0.00 0.00 0.00 41
20260902010258 82 296 1.0 4.0 0.00 0.00 0.00 36
20260902005756 83 296 1.0 4.0 0.00 0.00 0.00 35
20260902005239 84 296 2.0 4.0 0.00 0.00 0.00 36
20260902004744 84 296 1.0 4.0 0.00 0.00 0.00 34
20260902003626 85 296 1.0 4.0 0.00 0.00 0.00 33
20260902002508 86 296 0.0 4.0 0.00 0.00 0.00 33
20260902001313 87 297 0.0 1.0 0.00 0.00 0.00 33
20260902000819 87 297 0.0 1.0 0.00 0.00 0.00 32
20260902000322 87 298 0.0 0.0 0.00 0.00 0.00 34
20260901235809 87 298 0.0 0.0 0.00 0.00 0.00 34
20260901235317 87 298 1.0 1.0 0.00 0.00 0.00 34
20260901234800 87 300 0.0 4.0 0.00 0.00 0.00 34
20260901234244 87 278 0.0 2.0 0.00 0.00 0.00 32
20260901233751 88 277 0.0 1.0 0.00 0.00 0.00 32
20260901233245 88 227 0.0 3.0 0.00 0.00 0.00 31
20260901232735 88 230 0.0 3.0 0.00 0.00 0.00 31
20260901232237 88 243 0.0 3.0 0.00 0.00 0.00 31
20260901231719 87 243 0.0 3.0 0.00 0.00 0.00 31
20260901231219 87 148 0.0 1.0 0.00 0.00 0.00 32
20260901230700 87 122 0.0 2.0 0.00 0.00 0.00 32
20260901230201 87 16 0.0 3.0 0.00 0.00 0.00 34
20260901225642 87 15 0.0 3.0 0.00 0.00 0.00 34
20260901225128 87 144 0.0 3.0 0.00 0.00 0.00 35
20260901224612 87 147 0.0 3.0 0.00 0.00 0.00 33
20260901223449 87 150 0.0 1.0 0.00 0.00 0.00 33
20260901222952 86 44 0.0 3.0 0.00 0.00 0.00 34
20260901222446 86 107 0.0 1.0 0.00 0.00 0.00 35
20260901221941 86 199 0.0 4.0 0.00 0.00 0.00 34
20260901221447 86 160 0.0 4.0 0.00 0.00 0.00 37
20260901220943 85 120 0.0 4.0 0.00 0.00 0.00 37
20260901220446 85 57 0.0 4.0 0.00 0.00 0.00 38
20260901215324 85 111 0.0 4.0 0.00 0.00 0.00 38
20260901214815 85 98 0.0 4.0 0.00 0.00 0.00 40
20260901214306 84 56 0.0 7.0 0.00 0.00 0.00 41
20260901213753 84 136 0.0 7.0 0.00 0.00 0.00 44